www.pogodaiklimat.ru

АРХИВ ПОГОДЫ в Хоутон Лейк

Время (UTC), дата Ветер
(напр.,м/с)
 
Видим.   Явления Облачность Т
(С)
Тd
(С)
f
(%)
Тe
(С)
Тes
(С)
Комфортность

P
(гПа)

Po
(гПа)
Тmin
(С)
Tmax
(С)
R
(мм)
SD
(см)
13:53 23.05 З  7
{11} 
16 км    5/5 1320 м  +19.4  +11.1  59  +20  +21    1009.8  968.8         
14:53 23.05 З  8
{12} 
16 км    8/8 1380 м  +18.9  +8.9  52  +19  +19    1010.1  969.1         
15:53 23.05 З  7
{13} 
16 км    2/2 1500 м  +19.4  +7.8  47  +19  +22    1010.6  969.5         
16:53 23.05 З  8
{13} 
16 км    2/2 1500 м  +19.4  +8.3  49  +19  +21    1010.9  969.8  +16.7  +20.0     
17:53 23.05 З  8
{14} 
16 км    10/10 1410 м  +18.3  +8.3  52  +18  +18    1011.5  970.4         
18:53 23.05 З  10
{16} 
16 км    10/10 1410 м  +17.2  +7.2  52  +16  +16    1012.7  971.4         
19:53 23.05 З  8
{15} 
16 км    8/8 1410 м  +17.8  +7.8  52  +17  +17    1013.3  971.7         
20:53 23.05 З  9
{13} 
16 км    10/10 1440 м  +16.7  +7.8  56  +15  +15    1014.5  973.0         
21:53 23.05 З  7
{13} 
16 км    5/5 1260 м  +17.2  +7.8  54  +16  +16    1015.0  973.4         
22:53 23.05 З  7
{11} 
16 км    ясно  +17.2  +7.8  54  +16  +16    1015.5  974.0  +16.7  +19.4     
23:53 23.05 СЗ  16 км    ясно  +16.1  +7.8  58  +15  +15    1016.0  974.7         
00:53 24.05 З  16 км    ясно  +15.0  +7.8  62  +14  +14    1016.8  975.3         
01:53 24.05 СЗ  16 км    ясно  +13.9  +7.8  67  +12  +12    1017.5  976.0         
02:53 24.05 СЗ  16 км    8/8 570 м  +13.3  +8.9  75  +11  +11    1017.9  976.3         
03:39 24.05 С  16 км    10/10 480 м  +12.8  +8.9  77  +11  +11      976.6         
03:53 24.05 С  16 км    10/10 1200 м  +12.8  +8.9  77  +11  +11    1018.4  976.6         
04:53 24.05 СЗ  16 км    10/10 1290 м  +12.2  +8.3  77  +11  +11    1018.7  976.9  +12.2  +17.2     
05:53 24.05 СЗ  16 км    ясно  +10.6  +7.2  79  +8  +8    1019.0  977.3         
06:53 24.05 СЗ  16 км    ясно  +10.0  +7.2  83  +8  +8    1019.2  977.3         
07:53 24.05 С  16 км    2/2 300 м  +8.9  +6.7  86  +6  +6    1019.8  977.9         
08:07 24.05 СЗ  16 км    8/8 300 м  +8.9  +6.7  86  +7  +7      977.9         
08:50 24.05 С  16 км    10/10 270 м  +9.0  +7.0  87  +6  +6      977.9         
08:53 24.05   16 км    10/10 270 м  +9.4  +6.7  83  +9  +9    1020.1  978.2         
09:53 24.05 С  16 км    10/10 270 м  +9.4  +6.7  83  +6  +6    1020.6  978.5         
10:53 24.05 нст  16 км    10/10 240 м  +9.4  +7.2  86  +8  +8    1022.1  979.8  +8.3  +12.2     
11:53 24.05 С  16 км    10/10 210 м  +10.0  +7.2  83  +8  +8    1022.6  980.5         
12:53 24.05   16 км    10/10 240 м  +10.0  +7.2  83  +9  +9    1022.5  980.2         
13:28 24.05   16 км    10/10 300 м  +10.6  +7.8  83  +10  +10      979.8         
13:53 24.05 В  16 км    10/10 330 м  +11.7  +7.8  77  +10  +10    1021.5  979.5         
14:53 24.05 В  16 км    8/8 420 м  +12.2  +7.8  74  +10  +12    1020.8  978.9         
15:02 24.05 В  16 км    8/8 450 м
[средняя] 
+12.2  +7.8  74  +11  +13      978.9         
15:09 24.05 В  16 км    8/2 450 м
[средняя] 
+12.2  +7.8  74  +11  +17      978.9         
15:53 24.05   16 км    10/0 3600 м
[средняя] 
+13.3  +7.8  69  +13  +20    1022.0  979.8         
16:53 24.05 СВ  16 км    10/0 3600 м
[средняя] 
+13.9  +7.8  67  +13  +18    1022.0  979.8  +9.4  +13.9     
17:53 24.05   16 км    8/2 870 м
[средняя] 
+15.0  +8.3  64  +15  +24    1021.4  979.2         
18:53 24.05 ЮВ  16 км    8/0 3600 м
[средняя] 
+16.1  +8.9  62  +15  +20    1020.4  978.2         
19:53 24.05 Ю  16 км    ясно  +16.7  +8.9  60  +16  +23    1019.4  977.3         
20:53 24.05 ЮВ  16 км    ясно  +17.2  +8.9  58  +17  +23    1019.1  977.3         
21:53 24.05 Ю  16 км    5/5 840 м  +15.6  +9.4  67  +14  +16    1019.5  977.6         
22:04 24.05 Ю  16 км    8/8 840 м  +15.6  +9.4  67  +15  +15      977.3         
22:22 24.05 ЮВ  16 км    5/5 810 м  +16.1  +9.4  64  +15  +16      976.3         
22:53 24.05 Ю  16 км    2/2 840 м  +15.0  +8.9  67  +14  +16    1018.2  976.3  +13.9  +17.8     
23:53 24.05 ЮВ  16 км    2/0 3300 м
[средняя] 
+14.4  +9.4  72  +13  +14    1018.1  976.3         
00:53 25.05 ЮВ  16 км    10/0 2400 м
[средняя] 
+13.9  +9.4  74  +13  +13    1018.4  976.6         
01:53 25.05 ЮВ  16 км    10/5 1950 м
[средняя] 
+13.3  +9.4  77  +11  +11    1017.3  975.3         
02:53 25.05 ЮВ  16 км    10/0 2250 м
[средняя] 
+13.3  +9.4  77  +12  +12    1016.8  975.0         
03:53 25.05 ЮВ  16 км    10/2 1650 м
[средняя] 
+12.8  +9.4  80  +11  +11    1015.0  973.4         
04:53 25.05 ЮВ  16 км    10/8 1080 м
[средняя] 
+13.3  +10.6  84  +12  +12    1014.5  972.7  +12.2  +15.0     

 

Местоположение метеостанции Roscommon County Airport: широта 44.3511 долгота -84.6742 высота над уровнем моря 350 м.

В архиве по умолчанию представлена погода в Хоутон Лейк за последние 1-2 суток. Обновление информации о фактической погоде в базе происходит ежечасно! Архивные данные за месяц целиком и за предыдущие месяцы Вы можете получить, выбрав интересующий диапазон дат из раскрывающегося списка и нажав кнопку "Ввод!".

Внимание! Архив погоды МЕТАР в базе сайта в настоящее время начинается c 1 января 2011 г. Нет смысла пытаться выбрать более раннюю дату.

Внимание! Время в таблицах - всемирное. Для получения местного времени необходимо прибавить поправку, которая в Хоутон Лейк равна -5 ч.

Ветер - указаны скорость ветра в м/с и направление, откуда дует ветер: С - северный, СВ - северо-восточный, В - восточный, ЮВ - юго-восточный, Ю - южный, ЮЗ - юго-западный, З - западный, СЗ - северо-западный.
Видимость - горизонтальная дальность видимости в метрах или километрах. При видимости от 1 до 10 км при отсутствии осадков обычно наблюдается дымка, при ухудшении видимости до 1 км и менее - туман. В сухую погоду видимость может ухудшаться дымом, пылью или мглою.
Атмосферные явления - указаны явления, наблюдавшиеся в указанный момент времени.
Облачность - указаны через наклонную черту верхняя и нижняя облачность в баллах и высота нижней границы облаков в метрах. Внимание: облачность, как и прочие метеорологические величины в США измеряются автоматическими метеостанциями. Указанные значения в баллах носят условный характер и показывают процент времени, в течение которого, в среднем, лазерный луч высотомера отражался от облаков обратно.
T - Температура воздуха - температура, измеренная на высоте 2 м над землей.
Td - Температура точки росы - температура, при понижении до которой содержащийся в воздухе водяной пар достигнет насыщения.
f - Относительная влажность воздуха - влажноcть воздуха, измеренная на высоте 2 м над землей.
Te - Эффективная температура - температура, которую ощущает одетый по сезону человек в тени. Характеристика душности погоды. При расчете учитывается влияние влажности воздуха и скорости ветра на теплоощущения человека.
Tes - Эффективная температура на солнце - температура, которую ощущает человек, с поправкой на солнечный нагрев. Характеристика знойности погоды. Зависит от высоты солнца над горизонтом, облачности и скорости ветра. Ночью, в пасмурную погоду, а также при ветре 12 м/с и более поправка равна нулю.
P - Атмосферное давление - приведенное к уровню моря атмосферное давление.
Po - Атмосферное давление - измеренное на уровне метеостанции атмосферное давление.
Tmin - Минимальная температура - минимум температуры воздуха на высоте 2 м над землей.
Tmax - Максимальная температура - максимум температуры воздуха на высоте 2 м над землей.
R - Количество осадков - Количество выпавших осадков за 3 или 6 часов, мм.
SD - Снежный покров - Высота снежного покрова, см.